Weather History for KUZA - November, 2012

Change the Weather History Date:

Thursday, November 8, 2012

  Actual Average Record
Temperature  
Mean Temperature 50 °F -  
Max Temperature 64 °F 64 °F 80 °F (1975)
Min Temperature 36 °F 42 °F 25 °F (1951)
Degree Days  
Heating Degree Days 14    
Moisture  
Dew Point 30 °F    
Average Humidity 53    
Maximum Humidity 86    
Minimum Humidity 19    
Precipitation  
Precipitation 0.00 in - - ()
Sea Level Pressure  
Sea Level Pressure 30.08 in    
Wind  
Wind Speed 6 mph (NNW)    
Max Wind Speed 13 mph    
Max Gust Speed 21 mph    
Visibility 10 miles    
Events      
Averages and records for this station are not official NWS values.
T = Trace of Precipitation, MM = Missing Value Source: NWS Daily Summary

Daily Weather History Graph

Daily Weather History Graph

Search for Another Location

Airport or City:

Trip Planner

Search our weather history database for the weather conditions in past years. The results will help you decide how hot, cold, wet, or windy it might be!

Date:

Astronomy

Nov. 08, 2012 Rise Set
Actual Time 6:52 AM EST 5:23 PM EST
Civil Twilight 6:25 AM EST 5:49 PM EST
Nautical Twilight 5:55 AM EST 6:20 PM EST
Astronomical Twilight 5:25 AM EST 6:49 PM EST
Moon 12:59 AM EST (11/8) 1:51 PM EST (11/8)
Length of Visible Light 11h 24m
Length of Day
10h 30m
Waning Crescent, 33% of the Moon is Illuminated
Nov 8
Waning Crescent
Nov 13
New
Nov 20
First Quarter
Nov 28
Full
Dec 6
Last Quarter

Hourly Weather History & Observations

Time (EST) Temp. Windchill Dew Point Humidity Pressure Visibility Wind Dir Wind Speed Gust Speed Precip Events Conditions
12:54 AM 42.1 °F 37.7 °F 37.0 °F 82% 29.98 in 10.0 mi NNW 6.9 mph - N/A   Clear
1:54 AM 41.0 °F 38.0 °F 36.0 °F 82% 29.99 in 10.0 mi NNW 4.6 mph - N/A   Clear
2:54 AM 37.9 °F 35.5 °F 34.0 °F 86% 30.00 in 10.0 mi NNW 3.5 mph - N/A   Clear
3:54 AM 37.9 °F 35.5 °F 34.0 °F 86% 30.00 in 9.0 mi NNW 3.5 mph - N/A   Clear
4:54 AM 42.1 °F 38.4 °F 36.0 °F 79% 30.02 in 10.0 mi NW 5.8 mph - N/A   Clear
5:54 AM 42.1 °F 37.7 °F 35.1 °F 76% 30.04 in 10.0 mi NW 6.9 mph - N/A   Clear
6:54 AM 41.0 °F 37.1 °F 34.0 °F 76% 30.07 in 10.0 mi NW 5.8 mph - N/A   Clear
7:54 AM 45.0 °F 42.6 °F 35.1 °F 68% 30.09 in 10.0 mi NW 4.6 mph - N/A   Clear
8:54 AM 51.1 °F - 35.1 °F 54% 30.11 in 10.0 mi NNW 6.9 mph - N/A   Clear
9:54 AM 55.0 °F - 33.1 °F 43% 30.11 in 10.0 mi NNW 9.2 mph - N/A   Clear
10:54 AM 57.9 °F - 28.9 °F 33% 30.11 in 10.0 mi NNW 11.5 mph - N/A   Clear
11:54 AM 61.0 °F - 27.0 °F 27% 30.09 in 10.0 mi North 10.4 mph 20.7 mph N/A   Clear
12:54 PM 63.0 °F - 27.0 °F 26% 30.06 in 10.0 mi NNW 9.2 mph - N/A   Clear
1:54 PM 64.0 °F - 25.0 °F 23% 30.06 in 10.0 mi North 8.1 mph - N/A   Clear
2:54 PM 64.9 °F - 21.9 °F 19% 30.05 in 10.0 mi North 11.5 mph - N/A   Clear
3:54 PM 64.0 °F - 21.0 °F 19% 30.06 in 10.0 mi NNW 12.7 mph - N/A   Clear
4:54 PM 61.0 °F - 23.0 °F 23% 30.06 in 10.0 mi North 6.9 mph - N/A   Clear
5:54 PM 52.0 °F - 27.0 °F 38% 30.09 in 10.0 mi Calm Calm - N/A   Clear
6:54 PM 52.0 °F - 26.1 °F 37% 30.12 in 10.0 mi NW 5.8 mph - N/A   Clear
7:54 PM 42.1 °F 40.2 °F 28.0 °F 58% 30.14 in 10.0 mi North 3.5 mph - N/A   Clear
8:54 PM 41.0 °F 37.1 °F 27.0 °F 57% 30.15 in 10.0 mi North 5.8 mph - N/A   Clear
9:54 PM 45.0 °F 43.5 °F 27.0 °F 49% 30.16 in 10.0 mi Variable 3.5 mph - N/A   Clear
10:54 PM 44.1 °F - 28.0 °F 53% 30.16 in 10.0 mi Calm Calm - N/A   Clear
11:54 PM 36.0 °F - 28.0 °F 73% 30.16 in 10.0 mi Calm Calm - N/A   Clear